Time,TemperatureF,DewpointF,PressureIn,WindDirection,WindDirectionDegrees,WindSpeedMPH,WindSpeedGustMPH,Humidity,HourlyPrecipIn,Conditions,Clouds,dailyrainin,SoftwareType,DateUTC
2013-11-22 00:00:00,20.8,14.4,30.55,NNW,340,5.0,12.0,76,0.00,,,0.00,VWS V14.01,2013-11-22 06:00:00,
2013-11-22 00:01:00,20.8,14.4,30.55,NNW,333,5.0,8.0,76,0.00,,,0.00,VWS V14.01,2013-11-22 06:01:00,
2013-11-22 00:06:00,20.7,14.4,30.55,NNW,348,5.0,9.0,76,0.00,,,0.00,VWS V14.01,2013-11-22 06:06:00,
2013-11-22 00:11:00,20.6,14.2,30.55,NNW,335,3.0,10.0,76,0.00,,,0.00,VWS V14.01,2013-11-22 06:11:00,
2013-11-22 00:16:00,20.5,14.4,30.55,NNW,337,6.0,10.0,77,0.00,,,0.00,VWS V14.01,2013-11-22 06:16:00,
2013-11-22 00:21:00,20.4,14.4,30.55,North,350,8.0,11.0,77,0.00,,,0.00,VWS V14.01,2013-11-22 06:21:00,
2013-11-22 00:26:00,20.3,14.3,30.55,NNW,342,8.0,12.0,77,0.00,,,0.00,VWS V14.01,2013-11-22 06:26:00,
2013-11-22 00:30:00,20.3,14.3,30.55,NNW,348,9.0,12.0,77,0.00,,,0.00,VWS V14.01,2013-11-22 06:30:00,
2013-11-22 00:31:00,20.3,14.3,30.55,NNW,327,4.0,9.0,77,0.00,,,0.00,VWS V14.01,2013-11-22 06:31:00,
2013-11-22 00:36:00,20.2,14.2,30.55,NNW,342,6.0,11.0,77,0.00,,,0.00,VWS V14.01,2013-11-22 06:36:00,
2013-11-22 00:41:00,20.0,14.0,30.56,NNW,331,3.0,11.0,77,0.00,,,0.00,VWS V14.01,2013-11-22 06:41:00,
2013-11-22 00:46:00,20.0,14.3,30.56,North,350,11.0,11.0,78,0.00,,,0.00,VWS V14.01,2013-11-22 06:46:00,
2013-11-22 00:51:00,19.9,13.9,30.56,NNW,348,9.0,11.0,77,0.00,,,0.00,VWS V14.01,2013-11-22 06:51:00,
2013-11-22 00:56:00,19.9,13.9,30.55,NW,313,10.0,11.0,77,0.00,,,0.00,VWS V14.01,2013-11-22 06:56:00,
2013-11-22 01:00:00,19.9,14.2,30.55,NW,318,8.0,11.0,78,0.00,,,0.00,VWS V14.01,2013-11-22 07:00:00,
2013-11-22 01:01:00,19.9,14.2,30.55,NNW,338,6.0,9.0,78,0.00,,,0.00,VWS V14.01,2013-11-22 07:01:00,
2013-11-22 01:06:00,19.8,14.1,30.56,NW,313,4.0,9.0,78,0.00,,,0.00,VWS V14.01,2013-11-22 07:06:00,
2013-11-22 01:11:00,19.7,14.0,30.56,NW,316,3.0,9.0,78,0.00,,,0.00,VWS V14.01,2013-11-22 07:11:00,
2013-11-22 01:16:00,19.6,14.2,30.55,NW,324,3.0,10.0,79,0.00,,,0.00,VWS V14.01,2013-11-22 07:16:00,
2013-11-22 01:21:00,19.5,13.8,30.56,NNW,341,6.0,10.0,78,0.00,,,0.00,VWS V14.01,2013-11-22 07:21:00,
2013-11-22 01:26:00,19.5,13.8,30.56,NW,319,6.0,10.0,78,0.00,,,0.00,VWS V14.01,2013-11-22 07:26:00,
2013-11-22 01:30:00,19.4,14.0,30.56,NW,326,3.0,10.0,79,0.00,,,0.00,VWS V14.01,2013-11-22 07:30:00,
2013-11-22 01:31:00,19.3,13.9,30.56,NW,315,3.0,3.0,79,0.00,,,0.00,VWS V14.01,2013-11-22 07:31:00,
2013-11-22 01:36:00,19.2,13.8,30.56,NNW,327,3.0,6.0,79,0.00,,,0.00,VWS V14.01,2013-11-22 07:36:00,
2013-11-22 01:41:00,19.1,13.7,30.56,NW,325,6.0,11.0,79,0.00,,,0.00,VWS V14.01,2013-11-22 07:41:00,
2013-11-22 01:46:00,19.0,13.9,30.57,NNW,329,5.0,12.0,80,0.00,,,0.00,VWS V14.01,2013-11-22 07:46:00,
2013-11-22 01:51:00,18.9,13.5,30.57,NW,319,4.0,12.0,79,0.00,,,0.00,VWS V14.01,2013-11-22 07:51:00,
2013-11-22 01:56:00,18.9,13.8,30.57,NW,325,5.0,12.0,80,0.00,,,0.00,VWS V14.01,2013-11-22 07:56:00,
2013-11-22 02:00:00,18.8,13.7,30.57,NW,313,6.0,12.0,80,0.00,,,0.00,VWS V14.01,2013-11-22 08:00:00,
2013-11-22 02:01:00,18.8,13.7,30.57,NW,321,6.0,6.0,80,0.00,,,0.00,VWS V14.01,2013-11-22 08:01:00,
2013-11-22 02:06:00,18.8,13.7,30.57,NW,324,4.0,9.0,80,0.00,,,0.00,VWS V14.01,2013-11-22 08:06:00,
2013-11-22 02:11:00,18.5,13.4,30.57,NW,321,3.0,9.0,80,0.00,,,0.00,VWS V14.01,2013-11-22 08:11:00,
2013-11-22 02:16:00,18.3,13.2,30.57,NW,312,2.0,9.0,80,0.00,,,0.00,VWS V14.01,2013-11-22 08:16:00,
2013-11-22 02:21:00,18.2,13.4,30.57,NW,315,3.0,9.0,81,0.00,,,0.00,VWS V14.01,2013-11-22 08:21:00,
2013-11-22 02:26:00,18.2,13.4,30.57,NW,315,3.0,9.0,81,0.00,,,0.00,VWS V14.01,2013-11-22 08:26:00,
2013-11-22 02:30:00,18.1,13.3,30.57,NW,313,4.0,9.0,81,0.00,,,0.00,VWS V14.01,2013-11-22 08:30:00,
2013-11-22 02:31:00,18.1,13.3,30.57,NW,316,4.0,5.0,81,0.00,,,0.00,VWS V14.01,2013-11-22 08:31:00,
2013-11-22 02:36:00,17.8,13.0,30.57,NW,311,3.0,5.0,81,0.00,,,0.00,VWS V14.01,2013-11-22 08:36:00,
2013-11-22 02:41:00,17.6,12.8,30.57,NW,315,5.0,9.0,81,0.00,,,0.00,VWS V14.01,2013-11-22 08:41:00,
2013-11-22 02:46:00,17.5,12.7,30.57,NW,319,5.0,9.0,81,0.00,,,0.00,VWS V14.01,2013-11-22 08:46:00,
2013-11-22 02:51:00,17.3,12.5,30.58,NW,315,3.0,9.0,81,0.00,,,0.00,VWS V14.01,2013-11-22 08:51:00,
2013-11-22 02:56:00,17.0,12.5,30.58,NW,317,8.0,9.0,82,0.00,,,0.00,VWS V14.01,2013-11-22 08:56:00,
2013-11-22 03:00:00,16.9,12.4,30.58,NW,320,4.0,9.0,82,0.00,,,0.00,VWS V14.01,2013-11-22 09:00:00,
2013-11-22 03:01:00,17.0,12.5,30.58,NW,316,5.0,5.0,82,0.00,,,0.00,VWS V14.01,2013-11-22 09:01:00,
2013-11-22 03:06:00,16.8,12.3,30.58,NW,320,5.0,8.0,82,0.00,,,0.00,VWS V14.01,2013-11-22 09:06:00,
2013-11-22 03:11:00,16.6,12.1,30.58,NW,319,3.0,8.0,82,0.00,,,0.00,VWS V14.01,2013-11-22 09:11:00,
2013-11-22 03:16:00,16.3,12.1,30.57,NW,319,4.0,8.0,83,0.00,,,0.00,VWS V14.01,2013-11-22 09:16:00,
2013-11-22 03:21:00,16.1,11.9,30.57,NW,323,4.0,8.0,83,0.00,,,0.00,VWS V14.01,2013-11-22 09:21:00,
2013-11-22 03:26:00,15.8,11.6,30.57,NW,317,3.0,8.0,83,0.00,,,0.00,VWS V14.01,2013-11-22 09:26:00,
2013-11-22 03:30:00,15.4,11.4,30.57,NW,319,3.0,8.0,84,0.00,,,0.00,VWS V14.01,2013-11-22 09:30:00,
2013-11-22 03:31:00,15.4,11.4,30.57,NW,319,3.0,3.0,84,0.00,,,0.00,VWS V14.01,2013-11-22 09:31:00,
2013-11-22 03:36:00,15.2,11.5,30.57,NW,326,3.0,5.0,85,0.00,,,0.00,VWS V14.01,2013-11-22 09:36:00,
2013-11-22 03:41:00,14.9,11.2,30.57,NW,323,3.0,5.0,85,0.00,,,0.00,VWS V14.01,2013-11-22 09:41:00,
2013-11-22 03:46:00,14.7,11.0,30.57,NW,322,3.0,5.0,85,0.00,,,0.00,VWS V14.01,2013-11-22 09:46:00,
2013-11-22 03:51:00,14.8,11.4,30.57,NW,321,9.0,9.0,86,0.00,,,0.00,VWS V14.01,2013-11-22 09:51:00,
2013-11-22 03:56:00,15.0,11.3,30.57,NW,313,4.0,9.0,85,0.00,,,0.00,VWS V14.01,2013-11-22 09:56:00,
2013-11-22 04:00:00,15.1,11.4,30.57,NNW,327,3.0,9.0,85,0.00,,,0.00,VWS V14.01,2013-11-22 10:00:00,
2013-11-22 04:01:00,15.1,11.4,30.57,NNW,327,2.0,3.0,85,0.00,,,0.00,VWS V14.01,2013-11-22 10:01:00,
2013-11-22 04:06:00,15.0,11.3,30.57,NW,323,2.0,6.0,85,0.00,,,0.00,VWS V14.01,2013-11-22 10:06:00,
2013-11-22 04:10:00,14.8,11.1,30.56,NW,324,2.0,6.0,85,0.00,,,0.00,VWS V14.01,2013-11-22 10:10:00,
2013-11-22 04:15:00,14.6,10.9,30.57,NW,318,2.0,6.0,85,0.00,,,0.00,VWS V14.01,2013-11-22 10:15:00,
2013-11-22 04:20:00,14.3,10.9,30.56,NW,325,2.0,6.0,86,0.00,,,0.00,VWS V14.01,2013-11-22 10:20:00,
2013-11-22 04:25:00,13.9,10.5,30.57,NW,325,3.0,6.0,86,0.00,,,0.00,VWS V14.01,2013-11-22 10:25:00,
2013-11-22 04:30:00,13.7,10.3,30.57,NW,325,3.0,3.0,86,0.00,,,0.00,VWS V14.01,2013-11-22 10:30:00,
2013-11-22 04:35:00,13.5,10.4,30.56,NW,320,3.0,4.0,87,0.00,,,0.00,VWS V14.01,2013-11-22 10:35:00,
2013-11-22 04:40:00,13.7,10.6,30.56,NNW,338,2.0,4.0,87,0.00,,,0.00,VWS V14.01,2013-11-22 10:40:00,
2013-11-22 04:45:00,13.7,10.6,30.56,NNW,330,2.0,4.0,87,0.00,,,0.00,VWS V14.01,2013-11-22 10:45:00,
2013-11-22 04:50:00,13.6,10.5,30.56,NNW,329,3.0,4.0,87,0.00,,,0.00,VWS V14.01,2013-11-22 10:50:00,
2013-11-22 04:55:00,13.5,10.4,30.57,NNW,329,3.0,4.0,87,0.00,,,0.00,VWS V14.01,2013-11-22 10:55:00,
2013-11-22 05:00:00,13.5,10.6,30.57,NW,323,2.0,3.0,88,0.00,,,0.00,VWS V14.01,2013-11-22 11:00:00,
2013-11-22 05:05:00,13.7,10.8,30.56,NW,323,1.0,3.0,88,0.00,,,0.00,VWS V14.01,2013-11-22 11:05:00,
2013-11-22 05:10:00,13.8,10.9,30.56,NW,323,0.0,3.0,88,0.00,,,0.00,VWS V14.01,2013-11-22 11:10:00,
2013-11-22 05:15:00,13.7,10.8,30.56,NW,323,0.0,3.0,88,0.00,,,0.00,VWS V14.01,2013-11-22 11:15:00,
2013-11-22 05:20:00,13.7,10.8,30.56,NW,323,0.0,3.0,88,0.00,,,0.00,VWS V14.01,2013-11-22 11:20:00,
2013-11-22 05:25:00,13.5,10.6,30.56,NW,323,0.0,3.0,88,0.00,,,0.00,VWS V14.01,2013-11-22 11:25:00,
2013-11-22 05:30:00,13.0,10.1,30.57,NW,323,0.0,3.0,88,0.00,,,0.00,VWS V14.01,2013-11-22 11:30:00,
2013-11-22 05:35:00,12.5,9.9,30.57,NW,323,0.0,1.0,89,0.00,,,0.00,VWS V14.01,2013-11-22 11:35:00,
2013-11-22 05:40:00,12.3,9.7,30.57,NW,323,0.0,1.0,89,0.00,,,0.00,VWS V14.01,2013-11-22 11:40:00,
2013-11-22 05:45:00,12.2,9.8,30.57,NW,323,0.0,1.0,90,0.00,,,0.00,VWS V14.01,2013-11-22 11:45:00,
2013-11-22 05:50:00,12.2,9.8,30.57,NW,323,0.0,1.0,90,0.00,,,0.00,VWS V14.01,2013-11-22 11:50:00,
2013-11-22 05:55:00,12.0,9.6,30.58,NW,323,0.0,1.0,90,0.00,,,0.00,VWS V14.01,2013-11-22 11:55:00,
2013-11-22 06:00:00,11.9,9.8,30.57,NW,323,0.0,1.0,91,0.00,,,0.00,VWS V14.01,2013-11-22 12:00:00,
2013-11-22 06:05:00,11.6,9.2,30.58,NW,323,1.0,1.0,90,0.00,,,0.00,VWS V14.01,2013-11-22 12:05:00,
2013-11-22 06:10:00,11.4,9.3,30.58,NW,323,0.0,1.0,91,0.00,,,0.00,VWS V14.01,2013-11-22 12:10:00,
2013-11-22 06:15:00,11.6,9.5,30.57,NW,323,0.0,1.0,91,0.00,,,0.00,VWS V14.01,2013-11-22 12:15:00,
2013-11-22 06:20:00,11.8,9.7,30.57,NW,323,0.0,1.0,91,0.00,,,0.00,VWS V14.01,2013-11-22 12:20:00,
2013-11-22 06:25:00,11.8,9.7,30.58,NW,323,0.0,1.0,91,0.00,,,0.00,VWS V14.01,2013-11-22 12:25:00,
2013-11-22 06:30:00,11.3,8.9,30.58,NW,323,0.0,1.0,90,0.00,,,0.00,VWS V14.01,2013-11-22 12:30:00,
2013-11-22 06:35:00,10.8,8.4,30.58,NW,323,0.0,0.0,90,0.00,,,0.00,VWS V14.01,2013-11-22 12:35:00,
2013-11-22 06:40:00,10.7,8.4,30.58,NW,323,0.0,0.0,90,0.00,,,0.00,VWS V14.01,2013-11-22 12:40:00,
2013-11-22 06:45:00,10.8,8.7,30.58,NW,323,0.0,0.0,91,0.00,,,0.00,VWS V14.01,2013-11-22 12:45:00,
2013-11-22 06:50:00,10.8,8.7,30.59,NW,323,0.0,0.0,91,0.00,,,0.00,VWS V14.01,2013-11-22 12:50:00,
2013-11-22 06:55:00,10.4,8.3,30.58,NW,323,0.0,0.0,91,0.00,,,0.00,VWS V14.01,2013-11-22 12:55:00,
2013-11-22 07:00:00,10.3,8.2,30.58,NW,323,0.0,0.0,91,0.00,,,0.00,VWS V14.01,2013-11-22 13:00:00,
2013-11-22 07:05:00,10.4,8.3,30.58,NW,323,0.0,0.0,91,0.00,,,0.00,VWS V14.01,2013-11-22 13:05:00,
2013-11-22 07:10:00,10.7,8.6,30.58,NW,323,0.0,0.0,91,0.00,,,0.00,VWS V14.01,2013-11-22 13:10:00,
2013-11-22 07:15:00,10.3,8.2,30.58,NW,323,0.0,0.0,91,0.00,,,0.00,VWS V14.01,2013-11-22 13:15:00,
2013-11-22 07:20:00,9.8,7.5,30.57,NW,323,0.0,0.0,90,0.00,,,0.00,VWS V14.01,2013-11-22 13:20:00,
2013-11-22 07:25:00,10.6,8.7,30.57,NW,323,0.0,0.0,92,0.00,,,0.00,VWS V14.01,2013-11-22 13:25:00,
2013-11-22 07:30:00,10.9,9.0,30.57,NW,323,0.0,0.0,92,0.00,,,0.00,VWS V14.01,2013-11-22 13:30:00,
2013-11-22 07:35:00,10.6,8.5,30.57,NW,323,0.0,0.0,91,0.00,,,0.00,VWS V14.01,2013-11-22 13:35:00,
2013-11-22 07:40:00,10.6,8.5,30.57,NW,323,0.0,0.0,91,0.00,,,0.00,VWS V14.01,2013-11-22 13:40:00,
2013-11-22 07:45:00,10.9,8.8,30.57,NW,323,0.0,0.0,91,0.00,,,0.00,VWS V14.01,2013-11-22 13:45:00,
2013-11-22 07:50:00,11.7,9.8,30.57,WNW,294,2.0,2.0,92,0.00,,,0.00,VWS V14.01,2013-11-22 13:50:00,
2013-11-22 07:55:00,12.0,9.9,30.57,WNW,294,1.0,2.0,91,0.00,,,0.00,VWS V14.01,2013-11-22 13:55:00,
2013-11-22 08:00:00,12.1,10.0,30.57,WNW,294,1.0,3.0,91,0.00,,,0.00,VWS V14.01,2013-11-22 14:00:00,
2013-11-22 08:05:00,12.3,10.2,30.57,West,275,1.0,3.0,91,0.00,,,0.00,VWS V14.01,2013-11-22 14:05:00,
2013-11-22 08:10:00,12.6,10.5,30.57,West,275,1.0,3.0,91,0.00,,,0.00,VWS V14.01,2013-11-22 14:10:00,
2013-11-22 08:15:00,13.2,11.1,30.57,West,275,3.0,4.0,91,0.00,,,0.00,VWS V14.01,2013-11-22 14:15:00,
2013-11-22 08:20:00,13.5,11.1,30.57,West,278,2.0,7.0,90,0.00,,,0.00,VWS V14.01,2013-11-22 14:20:00,
2013-11-22 08:25:00,13.9,11.3,30.58,WNW,283,3.0,7.0,89,0.00,,,0.00,VWS V14.01,2013-11-22 14:25:00,
2013-11-22 08:30:00,14.2,11.6,30.58,West,279,3.0,7.0,89,0.00,,,0.00,VWS V14.01,2013-11-22 14:30:00,
2013-11-22 08:35:00,14.6,11.9,30.57,SW,225,3.0,6.0,89,0.00,,,0.00,VWS V14.01,2013-11-22 14:35:00,
2013-11-22 08:40:00,14.9,12.0,30.57,SW,221,5.0,6.0,88,0.00,,,0.00,VWS V14.01,2013-11-22 14:40:00,
2013-11-22 08:45:00,15.2,12.3,30.57,SW,215,5.0,6.0,88,0.00,,,0.00,VWS V14.01,2013-11-22 14:45:00,
2013-11-22 08:50:00,15.4,12.2,30.57,SW,219,3.0,6.0,87,0.00,,,0.00,VWS V14.01,2013-11-22 14:50:00,
2013-11-22 08:55:00,15.4,11.7,30.56,SW,222,4.0,7.0,85,0.00,,,0.00,VWS V14.01,2013-11-22 14:55:00,
2013-11-22 09:00:00,15.7,12.0,30.56,SSW,211,3.0,7.0,85,0.00,,,0.00,VWS V14.01,2013-11-22 15:00:00,
2013-11-22 09:05:00,16.1,12.4,30.56,SW,224,6.0,9.0,85,0.00,,,0.00,VWS V14.01,2013-11-22 15:05:00,
2013-11-22 09:10:00,16.6,12.9,30.56,SW,222,4.0,9.0,85,0.00,,,0.00,VWS V14.01,2013-11-22 15:10:00,
2013-11-22 09:15:00,17.0,12.7,30.56,SSW,200,4.0,9.0,83,0.00,,,0.00,VWS V14.01,2013-11-22 15:15:00,
2013-11-22 09:20:00,17.6,13.1,30.56,SW,231,6.0,9.0,82,0.00,,,0.00,VWS V14.01,2013-11-22 15:20:00,
2013-11-22 09:25:00,17.9,12.5,30.56,SW,217,4.0,11.0,79,0.00,,,0.00,VWS V14.01,2013-11-22 15:25:00,
2013-11-22 09:30:00,18.1,12.4,30.56,SW,231,5.0,11.0,78,0.00,,,0.00,VWS V14.01,2013-11-22 15:30:00,
2013-11-22 09:35:00,18.4,12.1,30.56,SSW,209,8.0,9.0,76,0.00,,,0.00,VWS V14.01,2013-11-22 15:35:00,
2013-11-22 09:40:00,18.8,12.2,30.55,SW,223,4.0,11.0,75,0.00,,,0.00,VWS V14.01,2013-11-22 15:40:00,
2013-11-22 09:45:00,19.6,11.7,30.55,SSW,211,5.0,11.0,71,0.00,,,0.00,VWS V14.01,2013-11-22 15:45:00,
2013-11-22 09:50:00,20.0,11.8,30.55,WSW,241,10.0,11.0,70,0.00,,,0.00,VWS V14.01,2013-11-22 15:50:00,
2013-11-22 09:55:00,20.1,11.6,30.55,SSW,201,4.0,11.0,69,0.00,,,0.00,VWS V14.01,2013-11-22 15:55:00,
2013-11-22 10:00:00,20.7,11.8,30.55,WSW,242,5.0,11.0,68,0.00,,,0.00,VWS V14.01,2013-11-22 16:00:00,
2013-11-22 10:05:00,20.9,11.7,30.55,SW,219,3.0,9.0,67,0.00,,,0.00,VWS V14.01,2013-11-22 16:05:00,
2013-11-22 10:10:00,22.1,12.5,30.55,SSW,208,4.0,10.0,66,0.00,,,0.00,VWS V14.01,2013-11-22 16:10:00,
2013-11-22 10:15:00,22.2,11.2,30.55,SSW,208,6.0,10.0,62,0.00,,,0.00,VWS V14.01,2013-11-22 16:15:00,
2013-11-22 10:20:00,22.2,10.4,30.54,SW,227,7.0,13.0,60,0.00,,,0.00,VWS V14.01,2013-11-22 16:20:00,
2013-11-22 10:25:00,22.7,10.5,30.54,WSW,240,9.0,16.0,59,0.00,,,0.00,VWS V14.01,2013-11-22 16:25:00,
2013-11-22 10:30:00,23.3,11.5,30.54,SSW,195,8.0,16.0,60,0.00,,,0.00,VWS V14.01,2013-11-22 16:30:00,
2013-11-22 10:35:00,24.0,11.0,30.53,SW,230,13.0,14.0,57,0.00,,,0.00,VWS V14.01,2013-11-22 16:35:00,
2013-11-22 10:40:00,23.7,9.5,30.53,SSW,210,8.0,14.0,54,0.00,,,0.00,VWS V14.01,2013-11-22 16:40:00,
2013-11-22 10:45:00,24.0,9.4,30.53,SSW,212,8.0,15.0,53,0.00,,,0.00,VWS V14.01,2013-11-22 16:45:00,
2013-11-22 10:50:00,24.0,8.5,30.52,SW,217,12.0,15.0,51,0.00,,,0.00,VWS V14.01,2013-11-22 16:50:00,
2013-11-22 10:55:00,24.1,9.0,30.52,WSW,254,5.0,15.0,52,0.00,,,0.00,VWS V14.01,2013-11-22 16:55:00,
2013-11-22 11:00:00,24.2,8.3,30.52,SSW,213,6.0,15.0,50,0.00,,,0.00,VWS V14.01,2013-11-22 17:00:00,
2013-11-22 11:05:00,24.7,9.2,30.51,WSW,248,3.0,12.0,51,0.00,,,0.00,VWS V14.01,2013-11-22 17:05:00,
2013-11-22 11:10:00,25.6,10.0,30.51,SW,229,5.0,12.0,51,0.00,,,0.00,VWS V14.01,2013-11-22 17:10:00,
2013-11-22 11:15:00,26.0,10.4,30.51,SSW,194,8.0,13.0,51,0.00,,,0.00,VWS V14.01,2013-11-22 17:15:00,
2013-11-22 11:20:00,25.6,8.6,30.51,SW,230,11.0,14.0,48,0.00,,,0.00,VWS V14.01,2013-11-22 17:20:00,
2013-11-22 11:25:00,25.3,8.4,30.51,SW,221,8.0,14.0,48,0.00,,,0.00,VWS V14.01,2013-11-22 17:25:00,
2013-11-22 11:30:00,25.9,8.5,30.50,WSW,250,9.0,15.0,47,0.00,,,0.00,VWS V14.01,2013-11-22 17:30:00,
2013-11-22 11:35:00,26.2,8.7,30.50,SW,234,7.0,16.0,47,0.00,,,0.00,VWS V14.01,2013-11-22 17:35:00,
2013-11-22 11:40:00,26.4,9.4,30.50,SW,232,5.0,16.0,48,0.00,,,0.00,VWS V14.01,2013-11-22 17:40:00,
2013-11-22 11:45:00,27.0,9.0,30.50,SSW,207,5.0,16.0,46,0.00,,,0.00,VWS V14.01,2013-11-22 17:45:00,
2013-11-22 11:50:00,28.0,8.9,30.50,SSW,210,6.0,16.0,44,0.00,,,0.00,VWS V14.01,2013-11-22 17:50:00,
2013-11-22 11:55:00,27.5,8.5,30.50,SSW,209,9.0,16.0,44,0.00,,,0.00,VWS V14.01,2013-11-22 17:55:00,
2013-11-22 12:00:00,27.8,8.2,30.49,SW,223,9.0,17.0,43,0.00,,,0.00,VWS V14.01,2013-11-22 18:00:00,
2013-11-22 12:05:00,28.6,7.9,30.50,SW,233,5.0,17.0,41,0.00,,,0.00,VWS V14.01,2013-11-22 18:05:00,
2013-11-22 12:09:00,29.3,6.9,30.49,WSW,237,5.0,17.0,38,0.00,,,0.00,VWS V14.01,2013-11-22 18:09:00,
2013-11-22 12:14:00,29.5,6.4,30.49,WSW,258,3.0,17.0,37,0.00,,,0.00,VWS V14.01,2013-11-22 18:14:00,
2013-11-22 12:19:00,29.2,6.8,30.49,SW,227,9.0,17.0,38,0.00,,,0.00,VWS V14.01,2013-11-22 18:19:00,
2013-11-22 12:24:00,29.3,7.4,30.49,SW,233,5.0,17.0,39,0.00,,,0.00,VWS V14.01,2013-11-22 18:24:00,
2013-11-22 12:29:00,28.7,6.9,30.48,SSW,207,8.0,17.0,39,0.00,,,0.00,VWS V14.01,2013-11-22 18:29:00,
2013-11-22 12:30:00,28.8,7.5,30.48,SW,228,8.0,17.0,40,0.00,,,0.00,VWS V14.01,2013-11-22 18:30:00,
2013-11-22 12:34:00,29.2,7.3,30.49,WSW,242,13.0,13.0,39,0.00,,,0.00,VWS V14.01,2013-11-22 18:34:00,
2013-11-22 12:39:00,29.6,7.7,30.49,WSW,257,13.0,13.0,39,0.00,,,0.00,VWS V14.01,2013-11-22 18:39:00,
2013-11-22 12:44:00,29.1,7.2,30.48,SW,231,4.0,15.0,39,0.00,,,0.00,VWS V14.01,2013-11-22 18:44:00,
2013-11-22 12:49:00,29.4,6.9,30.48,WSW,239,11.0,15.0,38,0.00,,,0.00,VWS V14.01,2013-11-22 18:49:00,
2013-11-22 12:54:00,29.5,7.0,30.47,SW,232,4.0,15.0,38,0.00,,,0.00,VWS V14.01,2013-11-22 18:54:00,
2013-11-22 12:59:00,29.1,6.7,30.48,West,260,7.0,17.0,38,0.00,,,0.00,VWS V14.01,2013-11-22 18:59:00,
2013-11-22 13:00:00,29.1,6.7,30.48,WSW,237,6.0,17.0,38,0.00,,,0.00,VWS V14.01,2013-11-22 19:00:00,
2013-11-22 13:04:00,29.1,6.7,30.48,SW,223,4.0,11.0,38,0.00,,,0.00,VWS V14.01,2013-11-22 19:04:00,
2013-11-22 13:09:00,29.5,7.0,30.48,SW,235,9.0,14.0,38,0.00,,,0.00,VWS V14.01,2013-11-22 19:09:00,
2013-11-22 13:14:00,30.4,7.3,30.48,West,259,2.0,14.0,37,0.00,,,0.00,VWS V14.01,2013-11-22 19:14:00,
2013-11-22 13:19:00,30.4,6.7,30.48,WSW,242,3.0,14.0,36,0.00,,,0.00,VWS V14.01,2013-11-22 19:19:00,
2013-11-22 13:24:00,31.0,7.2,30.48,SSW,207,5.0,14.0,36,0.00,,,0.00,VWS V14.01,2013-11-22 19:24:00,
2013-11-22 13:29:00,30.7,6.3,30.48,West,267,4.0,15.0,35,0.00,,,0.00,VWS V14.01,2013-11-22 19:29:00,
2013-11-22 13:30:00,30.5,6.7,30.48,WSW,245,10.0,15.0,36,0.00,,,0.00,VWS V14.01,2013-11-22 19:30:00,
2013-11-22 13:34:00,30.4,6.7,30.48,West,265,7.0,11.0,36,0.00,,,0.00,VWS V14.01,2013-11-22 19:34:00,
2013-11-22 13:39:00,30.4,6.0,30.48,West,275,11.0,15.0,35,0.00,,,0.00,VWS V14.01,2013-11-22 19:39:00,
2013-11-22 13:44:00,31.0,7.2,30.48,West,268,3.0,15.0,36,0.00,,,0.00,VWS V14.01,2013-11-22 19:44:00,
2013-11-22 13:49:00,30.7,6.3,30.47,WNW,302,9.0,19.0,35,0.00,,,0.00,VWS V14.01,2013-11-22 19:49:00,
2013-11-22 13:54:00,30.4,6.7,30.47,WNW,285,8.0,19.0,36,0.00,,,0.00,VWS V14.01,2013-11-22 19:54:00,
2013-11-22 13:59:00,30.1,6.4,30.47,West,261,7.0,19.0,36,0.00,,,0.00,VWS V14.01,2013-11-22 19:59:00,
2013-11-22 14:00:00,30.1,6.4,30.47,West,267,10.0,19.0,36,0.00,,,0.00,VWS V14.01,2013-11-22 20:00:00,
2013-11-22 14:04:00,30.1,7.0,30.47,West,269,10.0,15.0,37,0.00,,,0.00,VWS V14.01,2013-11-22 20:04:00,
2013-11-22 14:09:00,29.9,6.8,30.47,West,279,6.0,17.0,37,0.00,,,0.00,VWS V14.01,2013-11-22 20:09:00,
2013-11-22 14:14:00,29.6,7.1,30.47,WNW,284,9.0,17.0,38,0.00,,,0.00,VWS V14.01,2013-11-22 20:14:00,
2013-11-22 14:19:00,29.7,7.2,30.47,West,268,4.0,17.0,38,0.00,,,0.00,VWS V14.01,2013-11-22 20:19:00,
2013-11-22 14:24:00,29.6,7.7,30.47,NW,311,13.0,17.0,39,0.00,,,0.00,VWS V14.01,2013-11-22 20:24:00,
2013-11-22 14:29:00,29.6,8.3,30.47,WNW,291,8.0,17.0,40,0.00,,,0.00,VWS V14.01,2013-11-22 20:29:00,
2013-11-22 14:30:00,29.6,8.3,30.47,WSW,258,10.0,17.0,40,0.00,,,0.00,VWS V14.01,2013-11-22 20:30:00,
2013-11-22 14:34:00,29.7,8.4,30.47,NW,309,9.0,15.0,40,0.00,,,0.00,VWS V14.01,2013-11-22 20:34:00,
2013-11-22 14:39:00,30.1,8.7,30.47,WNW,286,13.0,15.0,40,0.00,,,0.00,VWS V14.01,2013-11-22 20:39:00,
2013-11-22 14:44:00,30.1,8.7,30.47,West,279,11.0,15.0,40,0.00,,,0.00,VWS V14.01,2013-11-22 20:44:00,
2013-11-22 14:49:00,29.8,9.0,30.47,WNW,297,13.0,18.0,41,0.00,,,0.00,VWS V14.01,2013-11-22 20:49:00,
2013-11-22 14:54:00,29.6,8.8,30.47,West,271,7.0,18.0,41,0.00,,,0.00,VWS V14.01,2013-11-22 20:54:00,
2013-11-22 14:59:00,28.9,8.7,30.47,WNW,293,5.0,18.0,42,0.00,,,0.00,VWS V14.01,2013-11-22 20:59:00,
2013-11-22 15:00:00,28.8,9.1,30.47,NW,309,8.0,18.0,43,0.00,,,0.00,VWS V14.01,2013-11-22 21:00:00,
2013-11-22 15:04:00,28.8,9.6,30.47,NW,307,9.0,14.0,44,0.00,,,0.00,VWS V14.01,2013-11-22 21:04:00,
2013-11-22 15:09:00,28.7,10.6,30.48,NW,322,12.0,14.0,46,0.00,,,0.00,VWS V14.01,2013-11-22 21:09:00,
2013-11-22 15:14:00,28.2,10.6,30.48,WNW,301,13.0,16.0,47,0.00,,,0.00,VWS V14.01,2013-11-22 21:14:00,
2013-11-22 15:19:00,28.0,10.9,30.48,WNW,302,10.0,16.0,48,0.00,,,0.00,VWS V14.01,2013-11-22 21:19:00,
2013-11-22 15:24:00,27.8,11.1,30.48,WNW,292,10.0,16.0,49,0.00,,,0.00,VWS V14.01,2013-11-22 21:24:00,
2013-11-22 15:29:00,27.5,11.3,30.49,NW,324,8.0,16.0,50,0.00,,,0.00,VWS V14.01,2013-11-22 21:29:00,
2013-11-22 15:30:00,27.4,11.2,30.49,WNW,290,13.0,19.0,50,0.00,,,0.00,VWS V14.01,2013-11-22 21:30:00,
2013-11-22 15:34:00,27.2,11.0,30.49,NW,321,9.0,17.0,50,0.00,,,0.00,VWS V14.01,2013-11-22 21:34:00,
2013-11-22 15:39:00,26.9,11.6,30.49,NW,324,19.0,19.0,52,0.00,,,0.00,VWS V14.01,2013-11-22 21:39:00,
2013-11-22 15:44:00,26.6,11.4,30.49,NNW,327,12.0,20.0,52,0.00,,,0.00,VWS V14.01,2013-11-22 21:44:00,
2013-11-22 15:49:00,26.4,12.0,30.49,NW,312,13.0,20.0,54,0.00,,,0.00,VWS V14.01,2013-11-22 21:49:00,
2013-11-22 15:54:00,26.2,12.2,30.50,NW,317,10.0,20.0,55,0.00,,,0.00,VWS V14.01,2013-11-22 21:54:00,
2013-11-22 15:59:00,26.0,12.5,30.50,NW,309,12.0,20.0,56,0.00,,,0.00,VWS V14.01,2013-11-22 21:59:00,
2013-11-22 16:00:00,26.0,12.5,30.50,NNW,330,12.0,20.0,56,0.00,,,0.00,VWS V14.01,2013-11-22 22:00:00,
2013-11-22 16:04:00,25.9,12.4,30.50,NNW,327,12.0,12.0,56,0.00,,,0.00,VWS V14.01,2013-11-22 22:04:00,
2013-11-22 16:09:00,25.7,12.6,30.50,NW,312,6.0,13.0,57,0.00,,,0.00,VWS V14.01,2013-11-22 22:09:00,
2013-11-22 16:14:00,25.5,12.8,30.50,NW,323,9.0,18.0,58,0.00,,,0.00,VWS V14.01,2013-11-22 22:14:00,
2013-11-22 16:19:00,25.2,13.3,30.50,NW,324,10.0,18.0,60,0.00,,,0.00,VWS V14.01,2013-11-22 22:19:00,
2013-11-22 16:24:00,24.9,14.1,30.51,WNW,300,7.0,18.0,63,0.00,,,0.00,VWS V14.01,2013-11-22 22:24:00,
2013-11-22 16:29:00,24.5,14.4,30.51,NW,315,6.0,18.0,65,0.00,,,0.00,VWS V14.01,2013-11-22 22:29:00,
2013-11-22 16:30:00,24.4,14.3,30.51,NNW,331,8.0,18.0,65,0.00,,,0.00,VWS V14.01,2013-11-22 22:30:00,
2013-11-22 16:34:00,24.3,14.6,30.51,WNW,299,5.0,12.0,66,0.00,,,0.00,VWS V14.01,2013-11-22 22:34:00,
2013-11-22 16:39:00,24.0,15.0,30.51,West,279,7.0,12.0,68,0.00,,,0.00,VWS V14.01,2013-11-22 22:39:00,
2013-11-22 16:44:00,23.9,15.2,30.51,WNW,283,9.0,12.0,69,0.00,,,0.00,VWS V14.01,2013-11-22 22:44:00,
2013-11-22 16:49:00,23.8,15.5,30.51,NW,306,5.0,12.0,70,0.00,,,0.00,VWS V14.01,2013-11-22 22:49:00,
2013-11-22 16:54:00,23.8,15.5,30.51,WNW,286,8.0,14.0,70,0.00,,,0.00,VWS V14.01,2013-11-22 22:54:00,
2013-11-22 16:59:00,23.8,15.8,30.51,NW,310,5.0,14.0,71,0.00,,,0.00,VWS V14.01,2013-11-22 22:59:00,
2013-11-22 17:00:00,23.7,15.7,30.51,NW,311,5.0,14.0,71,0.00,,,0.00,VWS V14.01,2013-11-22 23:00:00,
2013-11-22 17:04:00,23.6,15.9,30.51,NNW,347,6.0,10.0,72,0.00,,,0.00,VWS V14.01,2013-11-22 23:04:00,
2013-11-22 17:09:00,23.4,16.4,30.51,WNW,300,9.0,11.0,74,0.00,,,0.00,VWS V14.01,2013-11-22 23:09:00,
2013-11-22 17:14:00,23.3,17.2,30.52,WNW,282,8.0,11.0,77,0.00,,,0.00,VWS V14.01,2013-11-22 23:14:00,
2013-11-22 17:19:00,23.1,17.3,30.52,WNW,298,9.0,11.0,78,0.00,,,0.00,VWS V14.01,2013-11-22 23:19:00,
2013-11-22 17:24:00,22.8,17.9,30.52,WNW,297,5.0,13.0,81,0.00,,,0.00,VWS V14.01,2013-11-22 23:24:00,
2013-11-22 17:29:00,22.6,17.7,30.52,NW,304,8.0,13.0,81,0.00,,,0.00,VWS V14.01,2013-11-22 23:29:00,
2013-11-22 17:30:00,22.5,17.6,30.52,WNW,298,8.0,13.0,81,0.00,,,0.00,VWS V14.01,2013-11-22 23:30:00,
2013-11-22 17:34:00,22.4,17.5,30.52,WNW,284,6.0,10.0,81,0.00,,,0.00,VWS V14.01,2013-11-22 23:34:00,
2013-11-22 17:39:00,22.2,17.5,30.52,NNW,329,10.0,10.0,82,0.00,,,0.00,VWS V14.01,2013-11-22 23:39:00,
2013-11-22 17:43:00,22.1,16.6,30.52,NW,316,9.0,15.0,79,0.00,,,0.00,VWS V14.01,2013-11-22 23:43:00,
2013-11-22 17:48:00,22.1,17.2,30.53,NW,318,6.0,15.0,81,0.00,,,0.00,VWS V14.01,2013-11-22 23:48:00,
2013-11-22 17:53:00,22.1,17.2,30.53,NW,322,6.0,15.0,81,0.00,,,0.00,VWS V14.01,2013-11-22 23:53:00,
2013-11-22 17:58:00,22.0,17.1,30.53,WNW,298,5.0,15.0,81,0.00,,,0.00,VWS V14.01,2013-11-22 23:58:00,
2013-11-22 18:00:00,22.0,17.1,30.53,NW,314,5.0,15.0,81,0.00,,,0.00,VWS V14.01,2013-11-23 00:00:00,
2013-11-22 18:03:00,21.9,16.7,30.53,NW,321,11.0,15.0,80,0.00,,,0.00,VWS V14.01,2013-11-23 00:03:00,
2013-11-22 18:08:00,21.8,16.3,30.53,NNW,328,12.0,18.0,79,0.00,,,0.00,VWS V14.01,2013-11-23 00:08:00,
2013-11-22 18:13:00,21.6,16.1,30.53,NNW,348,5.0,18.0,79,0.00,,,0.00,VWS V14.01,2013-11-23 00:13:00,
2013-11-22 18:18:00,21.3,15.5,30.53,NW,315,9.0,18.0,78,0.00,,,0.00,VWS V14.01,2013-11-23 00:18:00,
2013-11-22 18:23:00,21.0,14.9,30.53,NW,305,14.0,20.0,77,0.00,,,0.00,VWS V14.01,2013-11-23 00:23:00,
2013-11-22 18:28:00,20.7,14.6,30.53,NNW,344,14.0,20.0,77,0.00,,,0.00,VWS V14.01,2013-11-23 00:28:00,
2013-11-22 18:30:00,20.6,14.6,30.53,NW,324,8.0,20.0,77,0.00,,,0.00,VWS V14.01,2013-11-23 00:30:00,
2013-11-22 18:33:00,20.3,14.3,30.54,NW,319,8.0,15.0,77,0.00,,,0.00,VWS V14.01,2013-11-23 00:33:00,
2013-11-22 18:38:00,20.1,13.8,30.54,NNW,330,4.0,15.0,76,0.00,,,0.00,VWS V14.01,2013-11-23 00:38:00,
2013-11-22 18:43:00,19.9,13.6,30.54,NW,319,6.0,15.0,76,0.00,,,0.00,VWS V14.01,2013-11-23 00:43:00,
2013-11-22 18:48:00,19.7,13.4,30.54,NNW,331,10.0,15.0,76,0.00,,,0.00,VWS V14.01,2013-11-23 00:48:00,
2013-11-22 18:53:00,19.5,12.9,30.54,NNW,340,5.0,15.0,75,0.00,,,0.00,VWS V14.01,2013-11-23 00:53:00,
2013-11-22 18:58:00,19.5,12.3,30.55,NNW,340,12.0,16.0,73,0.00,,,0.00,VWS V14.01,2013-11-23 00:58:00,
2013-11-22 19:00:00,19.5,12.3,30.55,NNW,329,13.0,16.0,73,0.00,,,0.00,VWS V14.01,2013-11-23 01:00:00,
2013-11-22 19:03:00,19.5,12.0,30.55,NW,315,9.0,13.0,72,0.00,,,0.00,VWS V14.01,2013-11-23 01:03:00,
2013-11-22 19:08:00,19.4,11.6,30.55,NW,311,11.0,15.0,71,0.00,,,0.00,VWS V14.01,2013-11-23 01:08:00,
2013-11-22 19:13:00,19.2,11.0,30.55,NW,323,15.0,16.0,70,0.00,,,0.00,VWS V14.01,2013-11-23 01:13:00,
2013-11-22 19:18:00,19.1,10.9,30.56,NNW,340,10.0,19.0,70,0.00,,,0.00,VWS V14.01,2013-11-23 01:18:00,
2013-11-22 19:23:00,19.1,10.9,30.56,NW,308,8.0,19.0,70,0.00,,,0.00,VWS V14.01,2013-11-23 01:23:00,
2013-11-22 19:28:00,19.0,10.8,30.56,NNW,348,10.0,19.0,70,0.00,,,0.00,VWS V14.01,2013-11-23 01:28:00,
2013-11-22 19:30:00,18.9,10.8,30.56,NNW,329,10.0,19.0,70,0.00,,,0.00,VWS V14.01,2013-11-23 01:30:00,
2013-11-22 19:33:00,18.9,10.4,30.56,NNW,331,6.0,12.0,69,0.00,,,0.00,VWS V14.01,2013-11-23 01:33:00,
2013-11-22 19:38:00,18.8,10.3,30.56,NW,325,5.0,12.0,69,0.00,,,0.00,VWS V14.01,2013-11-23 01:38:00,
2013-11-22 19:43:00,18.6,10.8,30.56,NW,306,9.0,12.0,71,0.00,,,0.00,VWS V14.01,2013-11-23 01:43:00,
2013-11-22 19:48:00,18.6,10.8,30.57,NNW,341,11.0,12.0,71,0.00,,,0.00,VWS V14.01,2013-11-23 01:48:00,
2013-11-22 19:53:00,18.5,11.0,30.57,NW,322,6.0,12.0,72,0.00,,,0.00,VWS V14.01,2013-11-23 01:53:00,
2013-11-22 19:58:00,18.4,10.6,30.57,North,355,6.0,12.0,71,0.00,,,0.00,VWS V14.01,2013-11-23 01:58:00,
2013-11-22 20:00:00,18.4,10.9,30.57,NW,311,8.0,12.0,72,0.00,,,0.00,VWS V14.01,2013-11-23 02:00:00,
2013-11-22 20:03:00,18.4,10.6,30.57,NNW,338,10.0,13.0,71,0.00,,,0.00,VWS V14.01,2013-11-23 02:03:00,
2013-11-22 20:08:00,18.4,10.3,30.58,NNW,333,12.0,15.0,70,0.00,,,0.00,VWS V14.01,2013-11-23 02:08:00,
2013-11-22 20:13:00,18.0,8.9,30.58,North,350,18.0,20.0,67,0.00,,,0.00,VWS V14.01,2013-11-23 02:13:00,
2013-11-22 20:18:00,17.5,8.1,30.58,NW,326,14.0,25.0,66,0.00,,,0.00,VWS V14.01,2013-11-23 02:18:00,
2013-11-22 20:23:00,17.1,7.7,30.59,NW,321,14.0,25.0,66,0.00,,,0.00,VWS V14.01,2013-11-23 02:23:00,
2013-11-22 20:28:00,16.7,7.3,30.59,NW,317,12.0,25.0,66,0.00,,,0.00,VWS V14.01,2013-11-23 02:28:00,
2013-11-22 20:30:00,16.5,7.1,30.59,NW,325,9.0,25.0,66,0.00,,,0.00,VWS V14.01,2013-11-23 02:30:00,
2013-11-22 20:33:00,16.3,6.9,30.60,NW,320,12.0,18.0,66,0.00,,,0.00,VWS V14.01,2013-11-23 02:33:00,
2013-11-22 20:38:00,15.7,5.7,30.60,North,355,12.0,22.0,64,0.00,,,0.00,VWS V14.01,2013-11-23 02:38:00,
2013-11-22 20:43:00,15.3,5.3,30.60,NW,321,10.0,22.0,64,0.00,,,0.00,VWS V14.01,2013-11-23 02:43:00,
2013-11-22 20:48:00,14.8,4.8,30.61,NW,319,10.0,22.0,64,0.00,,,0.00,VWS V14.01,2013-11-23 02:48:00,
2013-11-22 20:53:00,14.5,4.9,30.61,NNW,336,15.0,22.0,65,0.00,,,0.00,VWS V14.01,2013-11-23 02:53:00,
2013-11-22 20:58:00,14.3,5.0,30.61,NW,318,8.0,22.0,66,0.00,,,0.00,VWS V14.01,2013-11-23 02:58:00,
2013-11-22 21:00:00,14.1,4.8,30.61,NNW,327,6.0,22.0,66,0.00,,,0.00,VWS V14.01,2013-11-23 03:00:00,
2013-11-22 21:03:00,14.0,5.1,30.61,NW,320,12.0,18.0,67,0.00,,,0.00,VWS V14.01,2013-11-23 03:03:00,
2013-11-22 21:08:00,13.9,5.3,30.61,NW,323,16.0,19.0,68,0.00,,,0.00,VWS V14.01,2013-11-23 03:08:00,
2013-11-22 21:13:00,14.0,6.0,30.62,NW,319,14.0,20.0,70,0.00,,,0.00,VWS V14.01,2013-11-23 03:13:00,
2013-11-22 21:18:00,14.0,5.1,30.62,North,360,13.0,24.0,67,0.00,,,0.00,VWS V14.01,2013-11-23 03:18:00,
2013-11-22 21:23:00,13.8,4.2,30.62,NNW,336,14.0,25.0,65,0.00,,,0.00,VWS V14.01,2013-11-23 03:23:00,
2013-11-22 21:28:00,13.6,4.0,30.62,NNW,343,20.0,25.0,65,0.00,,,0.00,VWS V14.01,2013-11-23 03:28:00,
2013-11-22 21:30:00,13.4,3.5,30.63,North,351,14.0,25.0,64,0.00,,,0.00,VWS V14.01,2013-11-23 03:30:00,
2013-11-22 21:33:00,13.2,3.0,30.63,NNW,344,13.0,23.0,63,0.00,,,0.00,VWS V14.01,2013-11-23 03:33:00,
2013-11-22 21:38:00,12.9,2.7,30.63,NW,319,14.0,23.0,63,0.00,,,0.00,VWS V14.01,2013-11-23 03:38:00,
2013-11-22 21:43:00,12.5,2.3,30.64,NNW,339,15.0,26.0,63,0.00,,,0.00,VWS V14.01,2013-11-23 03:43:00,
2013-11-22 21:48:00,12.2,2.0,30.64,NNW,334,15.0,26.0,63,0.00,,,0.00,VWS V14.01,2013-11-23 03:48:00,
2013-11-22 21:53:00,11.9,2.1,30.64,NNW,336,6.0,26.0,64,0.00,,,0.00,VWS V14.01,2013-11-23 03:53:00,
2013-11-22 21:58:00,11.7,1.9,30.64,NNW,338,12.0,26.0,64,0.00,,,0.00,VWS V14.01,2013-11-23 03:58:00,
2013-11-22 22:00:00,11.6,1.8,30.65,NNW,342,8.0,26.0,64,0.00,,,0.00,VWS V14.01,2013-11-23 04:00:00,
2013-11-22 22:03:00,11.5,2.0,30.64,North,355,13.0,14.0,65,0.00,,,0.00,VWS V14.01,2013-11-23 04:03:00,
2013-11-22 22:08:00,11.4,1.9,30.65,NNW,340,13.0,16.0,65,0.00,,,0.00,VWS V14.01,2013-11-23 04:08:00,
2013-11-22 22:13:00,11.2,2.1,30.65,NW,324,6.0,17.0,66,0.00,,,0.00,VWS V14.01,2013-11-23 04:13:00,
2013-11-22 22:18:00,11.1,2.0,30.65,NNW,344,11.0,17.0,66,0.00,,,0.00,VWS V14.01,2013-11-23 04:18:00,
2013-11-22 22:23:00,11.0,1.9,30.65,North,350,9.0,17.0,66,0.00,,,0.00,VWS V14.01,2013-11-23 04:23:00,
2013-11-22 22:28:00,10.8,2.0,30.66,NNW,330,8.0,17.0,67,0.00,,,0.00,VWS V14.01,2013-11-23 04:28:00,
2013-11-22 22:30:00,10.7,1.9,30.66,NW,323,15.0,17.0,67,0.00,,,0.00,VWS V14.01,2013-11-23 04:30:00,
2013-11-22 22:33:00,10.7,1.6,30.65,NNW,328,10.0,15.0,66,0.00,,,0.00,VWS V14.01,2013-11-23 04:33:00,
2013-11-22 22:38:00,10.6,1.8,30.66,NNW,338,5.0,15.0,67,0.00,,,0.00,VWS V14.01,2013-11-23 04:38:00,
2013-11-22 22:43:00,10.4,1.6,30.66,NNW,342,5.0,15.0,67,0.00,,,0.00,VWS V14.01,2013-11-23 04:43:00,
2013-11-22 22:48:00,10.3,1.5,30.66,NW,319,4.0,15.0,67,0.00,,,0.00,VWS V14.01,2013-11-23 04:48:00,
2013-11-22 22:53:00,10.3,1.9,30.66,WNW,300,4.0,15.0,68,0.00,,,0.00,VWS V14.01,2013-11-23 04:53:00,
2013-11-22 22:58:00,10.2,1.4,30.67,NNW,344,8.0,15.0,67,0.00,,,0.00,VWS V14.01,2013-11-23 04:58:00,
2013-11-22 23:00:00,10.2,1.8,30.67,NNW,341,4.0,15.0,68,0.00,,,0.00,VWS V14.01,2013-11-23 05:00:00,
2013-11-22 23:01:00,10.2,1.8,30.67,NW,313,9.0,9.0,68,0.00,,,0.00,VWS V14.01,2013-11-23 05:01:00,
2013-11-22 23:06:00,10.0,1.9,30.67,NW,311,5.0,11.0,69,0.00,,,0.00,VWS V14.01,2013-11-23 05:06:00,
2013-11-22 23:11:00,10.0,1.9,30.67,NW,311,8.0,13.0,69,0.00,,,0.00,VWS V14.01,2013-11-23 05:11:00,
2013-11-22 23:16:00,10.0,1.9,30.67,NNW,330,5.0,13.0,69,0.00,,,0.00,VWS V14.01,2013-11-23 05:16:00,
2013-11-22 23:21:00,10.0,2.2,30.67,NW,322,5.0,13.0,70,0.00,,,0.00,VWS V14.01,2013-11-23 05:21:00,
2013-11-22 23:26:00,9.9,2.1,30.68,NW,321,6.0,15.0,70,0.00,,,0.00,VWS V14.01,2013-11-23 05:26:00,
2013-11-22 23:30:00,9.9,2.4,30.68,NW,323,8.0,15.0,71,0.00,,,0.00,VWS V14.01,2013-11-23 05:30:00,
2013-11-22 23:31:00,9.9,2.4,30.68,West,271,7.0,8.0,71,0.00,,,0.00,VWS V14.01,2013-11-23 05:31:00,
2013-11-22 23:36:00,9.8,2.6,30.69,NNW,331,10.0,13.0,72,0.00,,,0.00,VWS V14.01,2013-11-23 05:36:00,
2013-11-22 23:41:00,9.8,2.6,30.69,NW,323,9.0,13.0,72,0.00,,,0.00,VWS V14.01,2013-11-23 05:41:00,
2013-11-22 23:46:00,9.6,2.7,30.69,NW,309,10.0,13.0,73,0.00,,,0.00,VWS V14.01,2013-11-23 05:46:00,
2013-11-22 23:51:00,9.5,2.6,30.69,NW,317,5.0,13.0,73,0.00,,,0.00,VWS V14.01,2013-11-23 05:51:00,
2013-11-22 23:56:00,9.5,2.9,30.69,NW,319,6.0,13.0,74,0.00,,,0.00,VWS V14.01,2013-11-23 05:56:00,